Regional Weather Roundup
Issued by NWS

Home | Current Version | Previous Version | Graphics & Text | Print | Product List | Glossary Off
Versions: 1 2 3 4 5 6 7 8 9 10 11 12 13 14 15 16 17 18 19 20 21 22 23 24 25 26 27 28 29 30 31 32 33 34 35 36 37 38 39 40 41 42 43 44 45 46 47 48 49 50

000
ASUS43 KLSX 011959
RWRMO

WEATHER SUMMARY FOR MISSOURI
NATIONAL WEATHER SERVICE SPRINGFIELD MO
300 PM CDT FRI AUG 01 2014

NOTE: "FAIR" INDICATES FEW OR NO CLOUDS BELOW 12,000 FEET WITH NO
       SIGNIFICANT WEATHER AND/OR OBSTRUCTIONS TO VISIBILITY.
       CURRENT SKY AND/OR WEATHER CONDITIONS ARE NOT AVAILABLE FOR
       CHILLICOTHE AND FARMINGTON.

MOZ001>031-035>038-043-044-053-054-012100-
...NORTHERN AND WESTERN MISSOURI...

CITY           SKY/WX    TMP DP  RH WIND       PRES   REMARKS
KANSAS CTY INT PTSUNNY   82  60  47 CALM      30.08S
KANSAS C DTWN  PTSUNNY   85  61  44 VRB3      30.06S
LEE`S SUMMIT   MOSUNNY   83  60  45 VRB7      30.08F
ST JOSEPH      PTSUNNY   84  64  50 SE12      30.07F
CHILLICOTHE      N/A     83  59  44 CALM      30.09F
KIRKSVILLE     MOSUNNY   81  57  43 CALM      30.08F

$$
MOZ066>068-077>081-088>096-101>105-012100-
...SOUTHWEST MISSOURI...

CITY           SKY/WX    TMP DP  RH WIND       PRES   REMARKS
SPRINGFIELD    SUNNY     82  58  43 SE7       30.08F
JOPLIN         MOSUNNY   83  62  49 S8        30.07F

$$
MOZ032>034-039>042-045>050-055>058-069>072-012100-
...CENTRAL MISSOURI...

CITY           SKY/WX    TMP DP  RH WIND       PRES   REMARKS
COLUMBIA       PTSUNNY   78  64  61 NE6       30.08F
JEFFERSON CITY CLOUDY    77  60  55 N8        30.07F
SEDALIA        SUNNY     82  61  48 E7        30.09F
OSAGE BEACH      N/A     79  64  61 N6        30.07S

$$
MOZ051-052-059>065-012100-
...EAST CENTRAL MISSOURI...

CITY           SKY/WX    TMP DP  RH WIND       PRES   REMARKS
ST LOUIS INTL  LGT RAIN  76  64  66 NW9       30.07R
SPIRIT OF STL  LGT RAIN  72  65  78 N3        30.06R

$$
MOZ072>076-082>087-097>100-106>115-012100-
...SOUTH CENTRAL AND SOUTHEAST MISSOURI...

CITY           SKY/WX    TMP DP  RH WIND       PRES   REMARKS
CAPE GIRARDEAU SUNNY     84  62  47 E3        30.04F
FARMINGTON     SUNNY     84  55  37 SE5       30.07F
POPLAR BLUFF   SUNNY     84  63  49 VRB5      30.04F
WEST PLAINS    MOSUNNY   79  63  57 SE7       30.09F

$$



USA.gov is the U.S. government's official web portal to all federal, state and local government web resources and services.